Time,TemperatureF,DewpointF,PressureIn,WindDirection,WindDirectionDegrees,WindSpeedMPH,WindSpeedGustMPH,Humidity,HourlyPrecipIn,Conditions,Clouds,dailyrainin,SoftwareType,DateUTC
2013-01-26 00:00:00,54.7,52.0,29.98,South,171,0.0,0.0,90,0.00,,,0.01,,2013-01-26 08:00:00,
2013-01-26 00:10:00,55.2,52.0,29.97,South,171,1.0,2.0,89,0.00,,,0.00,,2013-01-26 08:10:00,
2013-01-26 00:20:00,55.8,52.0,29.97,South,171,0.0,0.0,88,0.00,,,0.00,,2013-01-26 08:20:00,
2013-01-26 00:30:00,56.6,52.0,29.97,South,171,3.0,4.0,86,0.00,,,0.00,,2013-01-26 08:30:00,
2013-01-26 00:40:00,56.9,52.0,29.96,SSE,165,4.0,5.0,84,0.00,,,0.00,,2013-01-26 08:40:00,
2013-01-26 00:50:00,56.7,52.0,29.96,SSE,165,3.0,4.0,85,0.00,,,0.00,,2013-01-26 08:50:00,
2013-01-26 01:00:00,56.3,52.0,29.96,SSE,165,2.0,2.0,86,0.00,,,0.00,,2013-01-26 09:00:00,
2013-01-26 01:10:00,56.1,52.0,29.96,South,171,4.0,5.0,87,0.00,,,0.00,,2013-01-26 09:10:00,
2013-01-26 01:20:00,56.1,52.0,29.96,South,171,2.0,4.0,87,0.00,,,0.00,,2013-01-26 09:20:00,
2013-01-26 01:30:00,56.5,52.0,29.96,South,171,0.0,2.0,86,0.00,,,0.00,,2013-01-26 09:30:00,
2013-01-26 01:40:00,56.9,52.0,29.96,South,171,2.0,2.0,85,0.00,,,0.00,,2013-01-26 09:40:00,
2013-01-26 01:50:00,56.9,52.0,29.96,South,171,0.0,0.0,85,0.00,,,0.00,,2013-01-26 09:50:00,
2013-01-26 02:00:00,56.7,52.0,29.96,South,171,2.0,2.0,85,0.00,,,0.00,,2013-01-26 10:00:00,
2013-01-26 02:10:00,55.9,52.0,29.95,South,171,1.0,2.0,87,0.00,,,0.00,,2013-01-26 10:10:00,
2013-01-26 02:20:00,55.7,52.0,29.95,South,173,0.0,0.0,88,0.00,,,0.00,,2013-01-26 10:20:00,
2013-01-26 02:30:00,56.0,53.0,29.95,South,173,0.0,0.0,88,0.00,,,0.00,,2013-01-26 10:30:00,
2013-01-26 02:40:00,56.5,53.0,29.95,South,173,0.0,1.0,87,0.00,,,0.00,,2013-01-26 10:40:00,
2013-01-26 02:50:00,56.9,52.0,29.95,SSE,152,1.0,2.0,85,0.00,,,0.00,,2013-01-26 10:50:00,
2013-01-26 03:00:00,56.4,52.0,29.95,ESE,104,4.0,4.0,85,0.00,,,0.00,,2013-01-26 11:00:00,
2013-01-26 03:10:00,54.8,52.0,29.95,ESE,103,4.0,4.0,89,0.00,,,0.00,,2013-01-26 11:10:00,
2013-01-26 03:20:00,54.9,52.0,29.94,East,87,5.0,6.0,89,0.00,,,0.00,,2013-01-26 11:20:00,
2013-01-26 03:30:00,55.6,52.0,29.94,East,84,6.0,6.0,89,0.00,,,0.00,,2013-01-26 11:30:00,
2013-01-26 03:40:00,56.1,52.0,29.93,East,86,6.0,6.0,87,0.00,,,0.00,,2013-01-26 11:40:00,
2013-01-26 03:50:00,55.8,52.0,29.93,East,90,2.0,2.0,87,0.00,,,0.00,,2013-01-26 11:50:00,
2013-01-26 04:00:00,56.0,53.0,29.93,East,90,0.0,0.0,88,0.00,,,0.00,,2013-01-26 12:00:00,
2013-01-26 04:10:00,56.8,53.0,29.93,East,88,1.0,3.0,87,0.00,,,0.00,,2013-01-26 12:10:00,
2013-01-26 04:20:00,57.1,53.0,29.93,ENE,77,3.0,4.0,85,0.00,,,0.00,,2013-01-26 12:20:00,
2013-01-26 04:30:00,57.1,53.0,29.93,ENE,77,0.0,1.0,85,0.00,,,0.00,,2013-01-26 12:30:00,
2013-01-26 04:40:00,56.7,53.0,29.92,ENE,77,3.0,3.0,86,0.00,,,0.00,,2013-01-26 12:40:00,
2013-01-26 04:50:00,56.7,53.0,29.93,ENE,77,4.0,4.0,86,0.00,,,0.00,,2013-01-26 12:50:00,
2013-01-26 05:00:00,55.1,51.0,29.93,ENE,77,5.0,5.0,87,0.00,,,0.00,,2013-01-26 13:00:00,
2013-01-26 05:10:00,53.8,51.0,29.93,West,268,5.0,6.0,91,0.00,,,0.00,,2013-01-26 13:10:00,
2013-01-26 05:20:00,54.2,52.0,29.93,West,270,10.0,11.0,92,0.00,,,0.00,,2013-01-26 13:20:00,
2013-01-26 05:30:00,54.6,52.0,29.93,West,270,10.0,11.0,91,0.00,,,0.00,,2013-01-26 13:30:00,
2013-01-26 05:40:00,54.4,52.0,29.93,WNW,285,10.0,12.0,91,0.00,,,0.00,,2013-01-26 13:40:00,
2013-01-26 05:50:00,53.6,51.0,29.93,WNW,289,4.0,4.0,92,0.00,,,0.00,,2013-01-26 13:50:00,
2013-01-26 06:00:00,53.3,51.0,29.93,NW,306,0.0,1.0,93,0.00,,,0.00,,2013-01-26 14:00:00,
2013-01-26 06:10:00,53.4,51.0,29.93,WNW,291,5.0,5.0,93,0.00,,,0.00,,2013-01-26 14:10:00,
2013-01-26 06:20:00,53.5,52.0,29.93,WNW,288,4.0,5.0,93,0.00,,,0.00,,2013-01-26 14:20:00,
2013-01-26 06:30:00,53.8,52.0,29.93,WNW,294,4.0,5.0,93,0.00,,,0.00,,2013-01-26 14:30:00,
2013-01-26 06:40:00,54.2,52.0,29.93,WNW,294,2.0,2.0,93,0.00,,,0.00,,2013-01-26 14:40:00,
2013-01-26 06:50:00,54.7,52.0,29.93,NNE,29,1.0,2.0,91,0.00,,,0.00,,2013-01-26 14:50:00,
2013-01-26 07:00:00,54.8,52.0,29.94,NNE,30,4.0,4.0,90,0.00,,,0.00,,2013-01-26 15:00:00,
2013-01-26 07:10:00,55.1,53.0,29.94,NNE,30,2.0,3.0,91,0.00,,,0.00,,2013-01-26 15:10:00,
2013-01-26 07:20:00,55.9,53.0,29.94,NNE,30,2.0,3.0,89,0.00,,,0.00,,2013-01-26 15:20:00,
2013-01-26 07:30:00,56.0,53.0,29.93,NNE,30,1.0,3.0,89,0.00,,,0.00,,2013-01-26 15:30:00,
2013-01-26 07:40:00,56.2,53.0,29.94,NNE,30,0.0,0.0,89,0.00,,,0.00,,2013-01-26 15:40:00,
2013-01-26 07:50:00,55.8,52.0,29.94,NNE,30,0.0,0.0,88,0.00,,,0.00,,2013-01-26 15:50:00,
2013-01-26 08:00:00,55.7,52.0,29.94,NNE,14,1.0,2.0,88,0.00,,,0.00,,2013-01-26 16:00:00,
2013-01-26 08:10:00,54.8,52.0,29.94,WNW,303,1.0,1.0,90,0.00,,,0.00,,2013-01-26 16:10:00,
2013-01-26 08:20:00,54.3,52.0,29.94,WNW,300,0.0,1.0,92,0.00,,,0.00,,2013-01-26 16:20:00,
2013-01-26 08:30:00,55.1,53.0,29.94,WNW,300,0.0,2.0,92,0.00,,,0.00,,2013-01-26 16:30:00,
2013-01-26 08:40:00,55.7,53.0,29.94,WNW,302,0.0,1.0,91,0.00,,,0.00,,2013-01-26 16:40:00,
2013-01-26 08:50:00,56.3,53.0,29.94,WNW,302,0.0,0.0,90,0.00,,,0.00,,2013-01-26 16:50:00,
2013-01-26 09:00:00,57.5,54.0,29.94,WNW,302,0.0,1.0,89,0.00,,,0.00,,2013-01-26 17:00:00,
2013-01-26 09:10:00,58.6,54.0,29.94,NNE,25,5.0,6.0,85,0.00,,,0.00,,2013-01-26 17:10:00,
2013-01-26 09:20:00,59.6,55.0,29.95,NNE,33,3.0,6.0,84,0.00,,,0.00,,2013-01-26 17:20:00,
2013-01-26 09:30:00,59.9,55.0,29.95,NNE,33,0.0,4.0,83,0.00,,,0.00,,2013-01-26 17:30:00,
2013-01-26 09:40:00,58.5,54.0,29.95,SW,231,2.0,5.0,86,0.00,,,0.00,,2013-01-26 17:40:00,
2013-01-26 09:50:00,57.0,54.0,29.95,West,263,5.0,6.0,90,0.00,,,0.00,,2013-01-26 17:50:00,
2013-01-26 10:00:00,57.3,55.0,29.96,WNW,286,3.0,6.0,91,0.00,,,0.00,,2013-01-26 18:00:00,
2013-01-26 10:10:00,58.1,55.0,29.96,WNW,287,2.0,4.0,90,0.00,,,0.00,,2013-01-26 18:10:00,
2013-01-26 10:20:00,58.9,55.0,29.96,WNW,287,3.0,4.0,87,0.00,,,0.00,,2013-01-26 18:20:00,
2013-01-26 10:30:00,57.8,55.0,29.96,West,263,11.0,11.0,89,0.00,,,0.00,,2013-01-26 18:30:00,
2013-01-26 10:40:00,55.7,53.0,29.96,West,277,15.0,15.0,92,0.00,,,0.00,,2013-01-26 18:40:00,
2013-01-26 10:50:00,53.6,52.0,29.96,West,275,14.0,17.0,95,0.00,,,0.00,,2013-01-26 18:50:00,
2013-01-26 11:00:00,53.9,53.0,29.97,West,276,14.0,17.0,96,0.00,,,0.00,,2013-01-26 19:00:00,
2013-01-26 11:10:00,54.6,53.0,29.97,West,267,16.0,18.0,96,0.00,,,0.00,,2013-01-26 19:10:00,
2013-01-26 11:20:00,55.4,54.0,29.97,West,271,21.0,21.0,94,0.00,,,0.00,,2013-01-26 19:20:00,
2013-01-26 11:30:00,54.2,53.0,29.96,WNW,288,22.0,23.0,95,0.00,,,0.00,,2013-01-26 19:30:00,
2013-01-26 11:40:00,54.1,53.0,29.96,WNW,286,17.0,25.0,96,0.00,,,0.00,,2013-01-26 19:40:00,
2013-01-26 11:50:00,53.5,52.0,29.96,West,274,24.0,27.0,96,0.00,,,0.00,,2013-01-26 19:50:00,
2013-01-26 12:00:00,54.0,53.0,29.95,WNW,296,19.0,26.0,96,0.00,,,0.00,,2013-01-26 20:00:00,
2013-01-26 12:10:00,53.9,53.0,29.95,WNW,284,18.0,26.0,95,0.00,,,0.00,,2013-01-26 20:10:00,
2013-01-26 12:20:00,52.9,52.0,29.95,West,267,22.0,27.0,96,0.00,,,0.00,,2013-01-26 20:20:00,
2013-01-26 12:30:00,52.9,52.0,29.95,West,279,22.0,26.0,97,0.00,,,0.00,,2013-01-26 20:30:00,
2013-01-26 12:40:00,52.6,52.0,29.94,West,278,21.0,27.0,97,0.00,,,0.00,,2013-01-26 20:40:00,
2013-01-26 12:50:00,52.6,52.0,29.94,West,279,23.0,27.0,97,0.00,,,0.00,,2013-01-26 20:50:00,
2013-01-26 13:00:00,52.6,52.0,29.94,West,279,23.0,27.0,97,0.00,,,0.00,,2013-01-26 21:00:00,